Location: Bodest
(46.3000°N, 22.5667°E)
Time: 10:26:35
(UTC+00:00)

SKYMED 2 - Pass Details

Date: 16 October 2021
Orbit: 621 x 623 km, 97.9° (Epoch: 07 December)

Event Time Altitude Azimuth Distance (km) Brightness Sun altitude
Rises 16:13:22 0° 19° (NNE) 2,917 6.8 -6.3°
Reaches altitude 10° 16:15:39 10° 25° (NNE) 2,005 5.9 -6.7°
Maximum altitude 16:19:50 45° 99° (E) 857 3.9 -7.4°
Drops below altitude 10° 16:23:59 10° 172° (S) 1,988 6.1 -8.1°
Sets 16:26:14 0° 179° (S) 2,889 7.0 -8.5°
